Flag for Germany Weather past 2 weeks in Saalfeld/Saale, Thuringia, Germany

Now
63 °F

Passing clouds.


Feels Like: 63 °F
Forecast: 54 / 71 °F
Wind: 6 mph from North

Location: Erfurt-Bindersleben

Current Time: Aug 29, 2014 at 10:08:48 PM

Latest Report: Aug 29, 2014 at 9:20 PM


Visibility: N/A

Pressure: 30.01 "Hg

Humidity: 83%

Dew point: 57 °F

Location of Saalfeld/SaaleLocation

Historic Weather in Saalfeld/Saale — Graph

°F

Saalfeld/Saale temperature yesterday

Maximum temperature yesterday: 72 °F (at 2:20 PM)
Minimum temperature yesterday: 45 °F (at 6:20 AM)
Average temperature yesterday: 59 °F

Past Weeks' High & Low Weather Summary

 TemperatureHumidityPressure
High72 °F (Aug 28, 2:20 PM)100% (Aug 21, 6:20 AM)30.09 "Hg (Aug 21, 6:20 AM)
Low43 °F (Aug 21, 5:20 AM)37% (Aug 22, 2:50 PM)29.68 "Hg (Aug 26, 8:20 AM)
Average56 °F75%29.94 "Hg
* Reported Aug 14 8:20 PM — Aug 29 8:50 PM, Saalfeld/Saale, Weather by CustomWeather, © 2014

Note: Actual official high and low records may vary slightly from our data, if they occured in-between our weather recording intervals... More about our weather records

Advertising

Saalfeld/Saale weather history for previous 24 hours

 ConditionsComfort  
Time TempWeatherWind HumidityBarometerVisibility
8:50 PM
Aug 29
63 °FBroken clouds.9 mph83%30.01 "HgN/A
8:20 PM66 °FPartly sunny.5 mph68%30.01 "HgN/A
7:50 PM66 °FPartly sunny.6 mph68%30.01 "HgN/A
7:20 PM68 °FPartly sunny.6 mph60%30.01 "HgN/A
6:50 PM70 °FPassing clouds.7 mph60%30.01 "HgN/A
6:20 PM72 °FPassing clouds.9 mph53%30.01 "HgN/A
5:50 PM72 °FPassing clouds.6 mph53%30.01 "HgN/A
5:20 PM70 °FPassing clouds.7 mph53%30.01 "HgN/A
4:50 PM72 °FPassing clouds.8 mph53%30.01 "HgN/A
4:20 PM72 °FPassing clouds.10 mph57%30.01 "HgN/A
3:50 PM70 °FScattered clouds.13 mph57%30.01 "HgN/A
3:20 PM70 °FScattered clouds.9 mph60%30.01 "HgN/A
2:50 PM70 °FBroken clouds.6 mph64%30.01 "HgN/A
2:20 PM70 °FBroken clouds.8 mph69%30.01 "HgN/A
1:50 PM68 °FPartly sunny.7 mph73%30.01 "HgN/A
1:20 PM66 °FPartly sunny.8 mph78%30.01 "HgN/A
12:50 PM64 °FBroken clouds.9 mph83%30.01 "HgN/A
12:20 PM66 °FPartly sunny.10 mph78%30.01 "HgN/A
11:50 AM64 °FPartly sunny.12 mph78%30.01 "HgN/A
11:20 AM66 °FBroken clouds.10 mph73%30.01 "HgN/A
10:50 AM66 °FPartly sunny.13 mph73%30.01 "HgN/A
10:20 AM66 °FPartly sunny.8 mph73%29.98 "HgN/A
9:50 AM66 °FPartly sunny.3 mph73%29.98 "HgN/A
9:20 AM64 °FBroken clouds.3 mph78%29.98 "HgN/A
8:50 AM63 °FPartly sunny.5 mph83%29.98 "HgN/A
8:20 AM63 °FPartly sunny.6 mph83%29.98 "HgN/A
7:50 AM63 °FPartly sunny.6 mph77%29.98 "HgN/A
7:20 AM61 °FPassing clouds.7 mph83%29.98 "HgN/A
6:50 AM61 °FSprinkles. Passing clouds.7 mph83%29.98 "HgN/A
6:20 AM61 °FScattered showers. Passing clouds.9 mph77%29.98 "HgN/A
5:50 AM59 °FClear.8 mph82%29.98 "Hg10 mi
5:20 AM59 °FClear.6 mph82%29.98 "Hg10 mi
4:50 AM59 °FClear.9 mph82%29.98 "Hg10 mi
4:20 AM59 °FClear.8 mph82%29.98 "Hg10 mi
3:50 AM61 °FPassing clouds.7 mph77%29.98 "HgN/A
3:20 AM61 °FPartly cloudy.7 mph77%30.01 "HgN/A
2:50 AM61 °FPassing clouds.8 mph83%30.01 "HgN/A
2:20 AM61 °FLight rain. Passing clouds.6 mph83%30.01 "HgN/A
1:50 AM61 °FClear.7 mph77%30.01 "Hg10 mi
1:20 AM61 °FPassing clouds.8 mph77%30.01 "HgN/A
12:50 AM61 °FPassing clouds.6 mph72%30.01 "HgN/A
12:20 AM61 °FClear.8 mph72%30.01 "Hg10 mi
11:50 PM
Aug 28
61 °FClear.8 mph72%30.04 "Hg10 mi
11:20 PM61 °FClear.8 mph77%30.04 "Hg10 mi
10:50 PM61 °FClear.8 mph72%30.01 "Hg10 mi
10:20 PM63 °FClear.7 mph68%30.04 "Hg10 mi
Weather by CustomWeather, © 2014

See weather overviewHow to use our weather pages